Flag for U.S.A. Weather past 2 weeks in Stockton, California, U.S.A.

Now
86 °F

Sunny.


Feels Like: 85 °F
Forecast: 61 / 87 °F
Wind: 7 mph from Northwest

Location: Stockton Metropolitan Airport

Current Time: Sep 19, 2014 at 5:11:28 PM

Latest Report: Sep 19, 2014 at 3:55 PM


Visibility: 10 mi

Pressure: 29.80 "Hg

Humidity: 37%

Dew point: 57 °F

Location of StocktonLocation

Historic Weather in Stockton — Graph

°F

Stockton temperature yesterday

Maximum temperature yesterday: 85 °F (at 2:55 PM)
Minimum temperature yesterday: 64 °F (at 5:55 AM)
Average temperature yesterday: 74 °F

Past Weeks' High & Low Weather Summary

 TemperatureHumidityPressure
High101 °F (Sep 12, 4:55 PM)90% (Sep 5, 6:55 AM)29.98 "Hg (Sep 5, 6:55 AM)
Low53 °F (Sep 9, 6:55 AM)14% (Sep 10, 4:55 PM)29.65 "Hg (Sep 4, 5:55 PM)
Average75 °F51%29.82 "Hg
* Reported Sep 4 3:55 PM — Sep 19 3:55 PM, Stockton, Weather by CustomWeather, © 2014

Note: Actual official high and low records may vary slightly from our data, if they occured in-between our weather recording intervals... More about our weather records

Advertising

Stockton weather history for previous 24 hours

 ConditionsComfort  
Time TempWeatherWind HumidityBarometerVisibility
3:55 PM
Sep 19
86 °FSunny.7 mph37%29.80 "Hg10 mi
2:55 PM87 °FSunny.6 mph35%29.81 "Hg10 mi
1:55 PM85 °FSunny.3 mph39%29.83 "Hg10 mi
12:55 PM83 °FSunny.12 mph41%29.84 "Hg10 mi
11:55 AM81 °FSunny.8 mph45%29.86 "Hg10 mi
10:55 AM77 °FSunny.6 mph54%29.88 "Hg10 mi
9:55 AM73 °FSunny.7 mph62%29.88 "Hg10 mi
8:55 AM70 °FSunny.7 mph66%29.88 "Hg10 mi
7:55 AM65 °FSunny.5 mph81%29.88 "Hg10 mi
6:55 AM65 °FClear.8 mph78%29.87 "Hg10 mi
5:55 AM64 °FClear.6 mph81%29.86 "Hg10 mi
4:55 AM66 °FClear.7 mph73%29.85 "Hg10 mi
3:55 AM66 °FClear.10 mph78%29.85 "Hg10 mi
2:55 AM64 °FClear.6 mph81%29.85 "Hg10 mi
1:55 AM65 °FClear.No wind78%29.85 "Hg10 mi
12:55 AM66 °FClear.7 mph78%29.85 "Hg10 mi
11:55 PM
Sep 18
69 °FClear.7 mph68%29.85 "Hg10 mi
10:55 PM69 °FClear.12 mph68%29.85 "Hg10 mi
9:55 PM71 °FClear.12 mph63%29.85 "Hg10 mi
8:55 PM73 °FClear.13 mph62%29.84 "Hg10 mi
7:55 PM75 °FSunny.20 mph55%29.82 "Hg10 mi
6:55 PM77 °FSunny.15 mph52%29.80 "Hg10 mi
5:55 PM82 °FPassing clouds.15 mph44%29.79 "Hg10 mi
Weather by CustomWeather, © 2014

See weather overviewHow to use our weather pages